When you browse on this site, cookies collect data to enhance your experience and personalize the content and advertising you see.
Visit our Privacy Policy to learn more. By continuing to use the site, you agree to this use of cookies and data.
  • In Latvia
  • List of Countries
  • For 7 days
  • Water Temperature
  • Weather Map
  • Weather Widgets
  • user-avatar
    Login

    Hourly Weather Escaldes-Engordany

    Today, 19 February, Wednesday

    Time Temperature Precipitation Wind Pressure Humidity
    00:00 -2°C° 0 mm 2 mps 644 mmHg 86%
    01:00 -2°C° 0 mm 2 mps 644 mmHg 83%
    02:00 -2°C° 0 mm 2 mps 644 mmHg 81%
    03:00 -2°C° 0 mm 2 mps 643 mmHg 78%
    04:00 -3°C° 0 mm 2 mps 643 mmHg 75%
    05:00 -3°C° 0 mm 2 mps 643 mmHg 72%
    06:00 -3°C° 0 mm 2 mps 644 mmHg 68%
    07:00 -1°C° 0 mm 2 mps 644 mmHg 62%
    08:00 +1°C° 0 mm 2 mps 645 mmHg 56%
    09:00 +3°C° 0 mm 2 mps 646 mmHg 50%
    10:00 +5°C° 0 mm 2 mps 646 mmHg 45%
    11:00 +8°C° 0 mm 1 mps 647 mmHg 39%
    12:00 +10°C° 0 mm 1 mps 647 mmHg 34%
    13:00 +9°C° 0 mm 1 mps 646 mmHg 38%
    14:00 +9°C° 0 mm 1 mps 646 mmHg 41%
    15:00 +9°C° 0 mm 1 mps 645 mmHg 45%
    16:00 +7°C° 0 mm 1 mps 644 mmHg 56%
    17:00 +5°C° 0 mm 1 mps 643 mmHg 68%
    18:00 +2°C° 0 mm 1 mps 642 mmHg 80%
    19:00 +2°C° 0 mm 1 mps 643 mmHg 74%
    20:00 +2°C° 0 mm 1 mps 643 mmHg 68%
    21:00 +2°C° 0 mm 1 mps 643 mmHg 62%
    22:00 +3°C° 0 mm 1 mps 642 mmHg 58%
    23:00 +3°C° 0 mm 1 mps 642 mmHg 53%

    Tomorrow, 20 February, Thursday

    Time Temperature Precipitation Wind Pressure Humidity
    00:00 +3°C° 0 mm 1 mps 642 mmHg 48%
    01:00 +3°C° 0 mm 1 mps 642 mmHg 45%
    02:00 +3°C° 0 mm 1 mps 641 mmHg 42%
    03:00 +3°C° 0 mm 1 mps 641 mmHg 39%
    04:00 +3°C° 0 mm 1 mps 641 mmHg 37%
    05:00 +3°C° 0 mm 1 mps 640 mmHg 34%
    06:00 +3°C° 0 mm 1 mps 640 mmHg 32%
    07:00 +5°C° 0 mm 1 mps 641 mmHg 31%
    08:00 +7°C° 0 mm 1 mps 641 mmHg 30%
    09:00 +8°C° 0 mm 0 mps 642 mmHg 29%
    10:00 +11°C° 0 mm 1 mps 642 mmHg 29%
    11:00 +12°C° 0 mm 1 mps 643 mmHg 29%
    12:00 +13°C° 0 mm 1 mps 643 mmHg 28%
    13:00 +13°C° 0 mm 1 mps 643 mmHg 31%
    14:00 +13°C° 0 mm 1 mps 642 mmHg 33%
    15:00 +12°C° 0 mm 1 mps 642 mmHg 36%
    16:00 +10°C° 0 mm 1 mps 642 mmHg 46%
    17:00 +7°C° 0 mm 1 mps 641 mmHg 56%
    18:00 +5°C° 0 mm 1 mps 641 mmHg 66%
    19:00 +4°C° 0 mm 1 mps 641 mmHg 65%
    20:00 +4°C° 0 mm 1 mps 642 mmHg 64%
    21:00 +4°C° 0 mm 1 mps 642 mmHg 64%
    22:00 +3°C° 0 mm 1 mps 642 mmHg 67%
    23:00 +2°C° 0 mm 2 mps 642 mmHg 70%

    Day after tomorrow, 21 February, Friday

    Time Temperature Precipitation Wind Pressure Humidity
    00:00 +2°C° 0 mm 2 mps 642 mmHg 73%
    01:00 +1°C° 0 mm 2 mps 642 mmHg 76%
    02:00 +1°C° 0 mm 2 mps 642 mmHg 78%
    03:00 +1°C° 0 mm 2 mps 642 mmHg 81%
    04:00 +1°C° 0 mm 2 mps 643 mmHg 80%
    05:00 +1°C° 0 mm 2 mps 643 mmHg 80%
    06:00 +1°C° 0 mm 2 mps 643 mmHg 80%
    13:00 +11°C° 0 mm 1 mps 647 mmHg 46%
    14:00 +11°C° 0 mm 1 mps 646 mmHg 46%
    15:00 +10°C° 0 mm 2 mps 646 mmHg 48%
    16:00 +8°C° 0 mm 1 mps 645 mmHg 59%
    17:00 +6°C° 0 mm 1 mps 644 mmHg 70%
    18:00 +4°C° 0 mm 1 mps 644 mmHg 80%
    19:00 +4°C° 0 mm 1 mps 644 mmHg 70%
    20:00 +4°C° 0 mm 1 mps 644 mmHg 60%
    21:00 +3°C° 0 mm 1 mps 644 mmHg 50%
    22:00 +3°C° 0 mm 1 mps 645 mmHg 45%
    23:00 +3°C° 0 mm 1 mps 645 mmHg 39%

    22 February, Saturday

    Time Temperature Precipitation Wind Pressure Humidity
    00:00 +4°C° 0 mm 1 mps 645 mmHg 34%
    01:00 +4°C° 0 mm 1 mps 645 mmHg 32%
    02:00 +4°C° 0 mm 1 mps 645 mmHg 31%
    03:00 +4°C° 0 mm 1 mps 645 mmHg 29%
    04:00 +4°C° 0 mm 1 mps 645 mmHg 30%
    05:00 +4°C° 0 mm 1 mps 645 mmHg 30%
    06:00 +4°C° 0 mm 1 mps 645 mmHg 31%
    07:00 +5°C° 0 mm 1 mps 646 mmHg 30%
    08:00 +6°C° 0 mm 0 mps 647 mmHg 30%
    09:00 +8°C° 0 mm 0 mps 648 mmHg 30%
    10:00 +10°C° 0 mm 0 mps 648 mmHg 30%
    11:00 +12°C° 0 mm 1 mps 649 mmHg 30%
    12:00 +13°C° 0 mm 1 mps 650 mmHg 30%
    13:00 +13°C° 0 mm 1 mps 649 mmHg 33%
    14:00 +13°C° 0 mm 1 mps 649 mmHg 37%
    15:00 +13°C° 0 mm 1 mps 649 mmHg 40%
    16:00 +11°C° 0 mm 1 mps 648 mmHg 49%
    17:00 +7°C° 0 mm 0 mps 647 mmHg 59%
    18:00 +5°C° 0 mm 0 mps 647 mmHg 68%
    19:00 +5°C° 0 mm 0 mps 647 mmHg 65%
    20:00 +6°C° 0 mm 1 mps 647 mmHg 62%
    21:00 +6°C° 0 mm 1 mps 647 mmHg 58%
    22:00 +6°C° 0 mm 1 mps 647 mmHg 56%
    23:00 +6°C° 0 mm 1 mps 647 mmHg 53%

    23 February, Sunday

    Time Temperature Precipitation Wind Pressure Humidity
    00:00 +5°C° 0 mm 1 mps 647 mmHg 50%
    01:00 +5°C° 0 mm 1 mps 647 mmHg 48%
    02:00 +5°C° 0 mm 1 mps 647 mmHg 47%
    03:00 +5°C° 0 mm 1 mps 646 mmHg 46%
    04:00 +5°C° 0 mm 1 mps 647 mmHg 45%
    05:00 +5°C° 0 mm 1 mps 647 mmHg 44%
    06:00 +5°C° 0 mm 1 mps 647 mmHg 43%
    07:00 +7°C° 0 mm 1 mps 647 mmHg 41%
    08:00 +9°C° 0 mm 0 mps 648 mmHg 39%
    09:00 +11°C° 0 mm 0 mps 649 mmHg 36%
    10:00 +13°C° 0 mm 1 mps 650 mmHg 35%
    11:00 +15°C° 0 mm 1 mps 650 mmHg 33%
    12:00 +16°C° 0 mm 1 mps 650 mmHg 31%
    13:00 +16°C° 0 mm 1 mps 650 mmHg 34%
    14:00 +16°C° 0 mm 1 mps 649 mmHg 36%
    15:00 +15°C° 0 mm 1 mps 649 mmHg 39%
    16:00 +13°C° 0 mm 1 mps 648 mmHg 50%
    17:00 +11°C° 0 mm 1 mps 647 mmHg 60%
    18:00 +7°C° 0 mm 0 mps 646 mmHg 71%
    19:00 +8°C° 0 mm 1 mps 646 mmHg 69%
    20:00 +8°C° 0 mm 1 mps 647 mmHg 68%
    21:00 +8°C° 0 mm 1 mps 647 mmHg 67%
    22:00 +7°C° 0 mm 1 mps 647 mmHg 65%
    23:00 +7°C° 0 mm 1 mps 646 mmHg 63%

    24 February, Monday

    Time Temperature Precipitation Wind Pressure Humidity
    00:00 +7°C° 0 mm 1 mps 646 mmHg 61%
    01:00 +7°C° 0 mm 1 mps 646 mmHg 59%
    02:00 +7°C° 0 mm 1 mps 646 mmHg 57%
    03:00 +7°C° 0 mm 1 mps 645 mmHg 56%
    04:00 +7°C° 0 mm 1 mps 645 mmHg 54%
    05:00 +6°C° 0 mm 1 mps 645 mmHg 53%
    06:00 +6°C° 0 mm 1 mps 645 mmHg 51%
    07:00 +8°C° 0 mm 1 mps 645 mmHg 48%
    08:00 +9°C° 0 mm 0 mps 646 mmHg 44%
    09:00 +12°C° 0 mm 0 mps 647 mmHg 41%
    10:00 +13°C° 0 mm 0 mps 647 mmHg 37%
    11:00 +15°C° 0 mm 1 mps 647 mmHg 34%
    12:00 +16°C° 0 mm 1 mps 647 mmHg 31%
    13:00 +16°C° 0 mm 1 mps 646 mmHg 33%
    14:00 +16°C° 0 mm 1 mps 646 mmHg 34%
    15:00 +16°C° 0 mm 1 mps 645 mmHg 35%
    16:00 +13°C° 0 mm 1 mps 644 mmHg 46%
    17:00 +10°C° 0 mm 0 mps 643 mmHg 56%
    18:00 +8°C° 0 mm 0 mps 642 mmHg 66%
    19:00 +7°C° 0 mm 0 mps 642 mmHg 65%
    20:00 +7°C° 0 mm 0 mps 642 mmHg 65%
    21:00 +8°C° 0 mm 1 mps 642 mmHg 64%
    22:00 +7°C° 0 mm 1 mps 642 mmHg 64%
    23:00 +7°C° 0 mm 1 mps 641 mmHg 63%
    Show more